CFDIA CNC3-CNC3

Flight info

Callsign CFDIA
Flight time N/A
Altitude 5500
Route VFR
Aircraft DA40/L-SBDFGRY/S

Departure

Time 2026-05-06 23:57
Airport Brampton-Caledon Airport (CNC3)

Arrival

Time N/A
Airport Brampton-Caledon Airport (CNC3)
Time Latitude Longitude Altitude Speed Heading
2026-05-06 23:42 43.75977 -79.87759 921 ft 0 kts 336°
2026-05-06 23:46 43.75981 -79.87761 921 ft 0 kts 333°
2026-05-06 23:48 43.75991 -79.87769 923 ft 4 kts 332°
2026-05-06 23:48 43.76019 -79.87760 921 ft 7 kts 37°
2026-05-06 23:48 43.76057 -79.87712 930 ft 10 kts 45°
2026-05-06 23:49 43.76094 -79.87654 929 ft 4 kts 24°
2026-05-06 23:49 43.76102 -79.87656 930 ft 0 kts 328°
2026-05-06 23:53 43.76105 -79.87656 926 ft 1 kts 25°
2026-05-06 23:53 43.76093 -79.87617 927 ft 11 kts 133°
2026-05-06 23:54 43.76015 -79.87514 920 ft 11 kts 130°
2026-05-06 23:54 43.75939 -79.87416 919 ft 12 kts 140°
2026-05-06 23:54 43.75894 -79.87354 917 ft 12 kts 138°
2026-05-06 23:54 43.75722 -79.87121 916 ft 52 kts 135°
2026-05-06 23:55 43.75607 -79.86973 912 ft 0 kts 129°
2026-05-06 23:55 43.75606 -79.86972 912 ft 0 kts 131°
2026-05-06 23:55 43.75594 -79.86952 913 ft 1 kts 113°
2026-05-06 23:56 43.75625 -79.86901 914 ft 11 kts 44°
2026-05-06 23:56 43.75708 -79.86972 914 ft 37 kts 316°
2026-05-06 23:56 43.75990 -79.87340 1024 ft 58 kts 316°
2026-05-06 23:56 43.76277 -79.87733 1233 ft 65 kts 313°
2026-05-06 23:57 43.76581 -79.88164 1514 ft 59 kts 310°
2026-05-06 23:57 43.76946 -79.88466 1785 ft 60 kts 335°
2026-05-06 23:57 43.77344 -79.88684 1960 ft 65 kts 327°
2026-05-06 23:57 43.77720 -79.89022 2129 ft 71 kts 316°
2026-05-06 23:58 43.78119 -79.89605 2104 ft 92 kts 307°
2026-05-06 23:58 43.78590 -79.90283 2107 ft 104 kts 317°
2026-05-06 23:58 43.79161 -79.90944 2134 ft 108 kts 317°
2026-05-06 23:58 43.79699 -79.91550 2424 ft 93 kts 318°
2026-05-06 23:59 43.80225 -79.92130 2485 ft 100 kts 319°
2026-05-06 23:59 43.80699 -79.92876 2491 ft 108 kts 301°
2026-05-06 23:59 43.81073 -79.93805 2494 ft 113 kts 299°
2026-05-06 23:59 43.81288 -79.94845 2493 ft 118 kts 268°
2026-05-07 00:00 43.80896 -79.95870 2494 ft 126 kts 231°
2026-05-07 00:00 43.80202 -79.96650 2495 ft 130 kts 226°